Content
SEND FEEDBACK

Daily
Averages
Monthly
Summary
United States of America

CHAMPAIGN, ILLINOIS


Home > North America > United States > Illinois
Elevation: 736 feet     Latitude: 40 05N     Longitude: 088 13W

WEATHER
 
SELECT A DAY
Number of Records: 195,829;   Date Range: 1/1/95 - 8/30/14
 
SHARE

PRINT THIS DATA

[ ← Previous Day ]
WEATHER ALMANAC - JANUARY 31, 2013
[ Next Day → ]
[ °C ]   °F
Weather ElementAverageHighLow
Temperature18.5 °F25 °F (12:53 pm)7 °F (11:53 pm)
Dewpoint10.9 °F19.4 °F (6:38 am)-2 °F (9:53 pm)
Humidity72.8 %86 % (6:38 am)63 % (3:16 pm)
Barometer29.98 in30.28 in (11:53 pm)29.81 in (12:53 am)
Wind Speed23.1 mph29.9 mph (1:53 am)
Wind Gust39.1 mph (7:53 pm)
Weather ElementAverage
Visibility8.6 mi
Wind DirectionWNW (278.9 °)

Weather ElementTotal
Precipitation---
Heating Degree Days49 (Base 65)
Averaged from 36 records on January 31, 2013
WEATHER CONDITIONS BREAKOUT
WIND DIRECTION BREAKOUT
WEATHER BY HOUR - JANUARY 31, 2013
[ °C ]   °F
Local TimeTemperatureDewpointHumidityBarometerVisibilityWind DirectionWind SpeedGust SpeedPrecipitationEventsConditions
12:53 AM21.9 °F15.1 °F75 %29.81 in10.0 miWest (280°)27.6 mph34.5 mphMostly Cloudy
1:53 AM19.9 °F12.9 °F74 %29.83 in8.0 miWest (270°)29.9 mph36.8 mph0.00 inSnowLight Snow
2:46 AM19.4 °F12.2 °F74 %29.83 in10.0 miWest (280°)20.7 mph32.2 mph0.00 inScattered Clouds
2:53 AM19.0 °F12.9 °F77 %29.86 in10.0 miWest (270°)21.9 mph29.9 mph0.00 inScattered Clouds
3:16 AM19.4 °F12.2 °F74 %29.83 in10.0 miWest (270°)19.6 mph27.6 mphMostly Cloudy
3:53 AM21.0 °F15.1 °F78 %29.86 in10.0 miWest (270°)19.6 mph23.0 mphOvercast
4:07 AM21.2 °F15.8 °F80 %29.83 in10.0 miWest (260°)19.6 mphOvercast
4:53 AM21.0 °F16.0 °F81 %29.86 in10.0 miWest (260°)15.0 mphOvercast
5:53 AM24.1 °F17.1 °F75 %29.85 in9.0 miWSW (250°)16.1 mph24.2 mph0.00 inSnowLight Snow
6:17 AM23.0 °F17.6 °F80 %29.83 in2.5 miWest (260°)18.4 mph27.6 mph0.00 inSnowLight Snow
6:38 AM23.0 °F19.4 °F86 %29.84 in8.0 miWest (260°)17.3 mph27.6 mph0.00 inSnowLight Snow
6:53 AM23.0 °F19.0 °F85 %29.87 in9.0 miWSW (250°)21.9 mph27.6 mph0.00 inSnowLight Snow
7:53 AM24.1 °F18.0 °F77 %29.90 in10.0 miWest (260°)21.9 mph27.6 mph0.00 inOvercast
8:04 AM24.8 °F19.4 °F80 %29.88 in10.0 miWest (270°)18.4 mphOvercast
8:53 AM23.0 °F17.1 °F78 %29.93 in9.0 miWNW (290°)20.7 mph0.00 inOvercast
9:53 AM23.0 °F15.1 °F72 %29.96 in10.0 miWNW (290°)18.4 mph0.00 inOvercast
10:53 AM23.0 °F15.1 °F72 %29.98 in10.0 miWest (270°)26.5 mph32.2 mphOvercast
11:53 AM24.1 °F15.1 °F69 %29.97 in10.0 miWest (280°)24.2 mph32.2 mphOvercast
12:53 PM25.0 °F15.1 °F66 %29.96 in10.0 miWest (270°)23.0 mph29.9 mphOvercast
1:53 PM24.1 °F15.1 °F69 %29.97 in8.0 miWNW (290°)24.2 mph0.00 inSnowLight Snow
2:53 PM21.9 °F12.0 °F66 %29.99 in10.0 miWest (280°)27.6 mph34.5 mph0.00 inMostly Cloudy
3:16 PM21.2 °F10.4 °F63 %29.97 in10.0 miWest (280°)24.2 mph33.4 mphOvercast
3:53 PM19.0 °F9.0 °F65 %30.03 in10.0 miWest (280°)24.2 mph32.2 mphOvercast
4:04 PM19.4 °F8.6 °F63 %30.00 in7.0 miWNW (290°)27.6 mph34.5 mph0.00 inSnowLight Snow
4:53 PM15.1 °F7.0 °F70 %30.07 in6.0 miWNW (290°)28.8 mph34.5 mph0.00 inSnowLight Snow
5:09 PM15.8 °F6.8 °F68 %30.04 in2.5 miWNW (290°)27.6 mph33.4 mph0.00 inSnowLight Snow
5:17 PM14.0 °F6.8 °F73 %30.04 in3.0 miWNW (290°)25.3 mph33.4 mph0.00 inSnowLight Snow
5:41 PM14.0 °F6.8 °F73 %30.06 in9.0 miWNW (290°)27.6 mph33.4 mph0.00 inOvercast
6:17 PM12.2 °F6.8 °F79 %30.08 in4.0 miWNW (300°)26.5 mph32.2 mph0.00 inSnowLight Snow
6:53 PM12.0 °F3.0 °F67 %30.14 in10.0 miWNW (290°)23.0 mph34.5 mph0.00 inMostly Cloudy
7:11 PM10.4 °F1.4 °F67 %30.10 in10.0 miWNW (300°)23.0 mph34.5 mphScattered Clouds
7:53 PM10.0 °F1.0 °F67 %30.17 in10.0 miWNW (290°)23.0 mph39.1 mphPartly Cloudy
8:53 PM9.0 °F1.0 °F70 %30.21 in9.0 miWNW (300°)23.0 mph36.8 mph0.00 inSnowLight Snow
9:53 PM8.1 °F-2.0 °F64 %30.23 in10.0 miWNW (290°)26.5 mph33.4 mphPartly Cloudy
10:53 PM8.1 °F0.0 °F70 %30.26 in10.0 miWNW (290°)25.3 mph33.4 mphMostly Cloudy
11:53 PM7.0 °F0.0 °F73 %30.28 in6.0 miWNW (290°)24.2 mph32.2 mph0.00 inSnowLight Snow
Hourly data recorded from KCMI, located miles away from Champaign, Illinois







STORIES FROM OUR PARTNERS